sat.trackr.live / text

‹ back to catalog

STARLINK-2160

NORAD 47746 · 2021-017AA

PAYLOAD ACTIVE UNKNOWN

§ Identity

Operator
Country
US
Launch date
2021-03-04
Launch site
AFETR
Launch vehicle
Mass (kg)
RCS (m²)

Purposes: comms

External: N2YO · Heavens-Above · Gunter

§ Orbital elements

Epoch: 2026-05-25T03:25:35.983776Z

Period
93.21 min
Inclination
53.1580°
Eccentricity
0.0005473
Mean motion
15.44833837 rev/d
Perigee alt
428.1 km
Apogee alt
435.6 km
Semi-major
6,810.0 km
B*
9.4695e-4
RAAN
204.9254°
Arg perigee
1.8712°
Mean anomaly
358.2315°
Rev number
28,959

§ Raw data

STARLINK-21601 47746U 21017AA  26145.14277759  .00044959  00000+0  94695-3 0  99952 47746  53.1580 204.9254 0005473   1.8712 358.2315 15.44833837289592

JSON: /api/v1/satellites/47746 · /tle

For live sub-satellite position, see the globe view (requires WebGL).

§ Visibility from observer

Set your observer location to see the next 7 days of passes ≥ 10°. The values pass through the URL so the page stays shareable.

No JS? Fill the form by hand. The geolocation button needs JavaScript.